[Iaude] MPEC D17: 2024 CZ7 [a=1.55,e=0.36,i=5.6,H=22.8]
    mpec at cfa.harvard.edu 
    mpec at cfa.harvard.edu
       
    Fri Feb 16 16:57:55 EST 2024
    
    
  
M.P.E.C. 2024-D17                             Issued 2024 February 16, 21:56 UT
     The Minor Planet Electronic Circulars contain information on unusual
         minor planets, routine data on comets and natural satellites,
         and occasional editorial announcements.  They are published
    on behalf of Division F of the International Astronomical Union by the
          Minor Planet Center, Smithsonian Astrophysical Observatory,
                          Cambridge, MA 02138, U.S.A.
			  
             Prepared using the Tamkin Foundation Computer Network
                              MPC at CFA.HARVARD.EDU
            URL https://www.minorplanetcenter.net/    ISSN 1523-6714
                                    2024 CZ7                                    
Observations:
     K24C07Z* C2024 02 14.29655306 50 30.946-31 12 30.04         20.33wXED017F51
     K24C07Z  C2024 02 14.30696606 50 30.006-31 13 10.74         20.45wXED017F51
     K24C07Z  C2024 02 14.31737006 50 29.065-31 13 51.36         20.76wXED017F51
     K24C07Z  C2024 02 14.32778006 50 28.121-31 14 31.97         20.62wXED017F51
     K24C07Z  C2024 02 15.14899506 49 42.157-32 08 16.18         20.6 GVED017H01
     K24C07Z  C2024 02 15.15450006 49 41.688-32 08 38.03         20.2 GVED017H01
     K24C07Z  C2024 02 15.16543906 49 40.751-32 09 21.62         20.2 GVED017H01
     K24C07Z  C2024 02 15.16992306 49 40.369-32 09 39.38         20.2 GVED017H01
     K24C07Z  C2024 02 15.30205906 49 33.062-32 18 12.84         20.16GVED017F52
     K24C07Z 1B2024 02 16.86355 06 48 05.813-34 01 44.04         20.4 VZED017M49
     K24C07Z 1B2024 02 16.87065 06 48 05.232-34 02 12.26         20.0 VZED017M49
     K24C07Z 1B2024 02 16.87775 06 48 04.613-34 02 40.81         20.1 VZED017M49
Observer details:
F51 Pan-STARRS 1, Haleakala.  Observers J. Herman, T. Lowe, P. Minguez, A.
    Schultz, I. Smith.  Measurers K. Chambers, T. de Boer, J. Fairlamb, H.
    Gao, M. Huber, C.-C. Lin, E. Magnier, Y. Ramanjooloo, R. Wainscoat, R.
    Weryk.  1.8-m Ritchey-Chretien + CCD.
F52 Pan-STARRS 2, Haleakala.  Observers J. Herman, T. Lowe, P. Minguez, A.
    Schultz, I. Smith.  Measurers K. Chambers, T. de Boer, J. Fairlamb, H.
    Gao, M. Huber, C.-C. Lin, E. Magnier, Y. Ramanjooloo, R. Wainscoat, R.
    Weryk.  1.8-m Ritchey-Chretien + CCD.
H01 Magdalena Ridge Observatory, Socorro.  Observers W. H. Ryan, E. V. Ryan.
    Measurer W. H. Ryan.  2.4-m f/8.9 Ritchey-Chretien + CCD.
M49 IAS Remote Observatory, Hakos.  Observers D. Husar, M. Junius.  Measurer
    M. Junius.  0.25-m f/4.5 reflector + CMO.
Orbital elements:
2024 CZ7                                                 Earth MOID = 0.0613 AU
Epoch 2024 Mar. 31.0 TT = JDT 2460400.5                 MPC                     
M   6.64827              (2000.0)            P               Q                  
n   0.50929656     Peri.  298.39311     -0.99603899     -0.02717398             
a   1.5529431      Node   240.16262     +0.05536087     -0.93461557             
e   0.3561148      Incl.    5.60107     -0.06958093     -0.35461996             
P   1.94           H   22.83          G   0.15           U   9                  
Residuals in seconds of arc
240214 F51  0.1+  0.0     240215 H01  0.0   0.0     240215 F52  0.1-  0.0
240214 F51  0.0   0.1+    240215 H01  0.0   0.1+    240216 M49  0.1-  0.1-
240214 F51  0.0   0.0     240215 H01  0.0   0.1-    240216 M49  0.3+  0.1+
240214 F51  0.0   0.1-    240215 H01  0.0   0.1-    240216 M49  0.2+  0.0
Ephemeris:
2024 CZ7                 a,e,i = 1.55, 0.36, 6                   q = 0.9999
Date    TT    R. A. (2000) Decl.     Delta      r    Elong.  Phase     V
2024 01 17    07 23 06.5 -05 53 02   0.2018  1.1662   152.2    23.1    20.8
...
2024 02 01    07 05 28.5 -18 06 07   0.1546  1.1007   135.5    38.9    20.5
...
2024 02 09    06 56 02.8 -25 41 48   0.1363  1.0707   125.1    48.9    20.5
...
2024 02 15    06 49 49.7 -31 57 23   0.1247  1.0511   117.5    56.4    20.5
2024 02 16    06 48 53.7 -33 03 28   0.1230  1.0481   116.3    57.7    20.5
2024 02 17    06 47 59.6 -34 10 42   0.1212  1.0451   115.1    58.9    20.5
...
2024 02 23    06 43 12.9 -41 21 27   0.1115  1.0293   108.1    66.0    20.5
...
2024 03 02    06 38 08.5 -52 23 21   0.1007  1.0131    99.8    74.5    20.5
...
2024 03 17    06 26 10.9 -78 02 14   0.08853 1.0000    90.7    84.3    20.5
A. U. Tomatic                (C) Copyright 2024 MPC           M.P.E.C. 2024-D17
    
    
More information about the Iaude
mailing list